Temperature
14 13 13 13 13 12 12 12 12 11 11 11 11 11 11 11 10 10 10 10 10 10 10 10 10 11 11 11 10 10 10 10 10 10 10 10 10 10 11 11 11 11 11
14 13 13 13 12 12 12 11 11 11 11 11 10 10 10 10 10 10 10 10 10 10 10 10 10 10 10 10 10 10 10 10 10 10 10 10 10 10 10 10 10 10 10
13 13 13 12 12 12 11 11 11 11 11 10 10 10 10 10 10 10 10 10 10 10 10 10 10 10 10 10 10 10 10 10 10 10 10 9 9 10 10 10 10 10 10
13 13 12 12 12 12 11 11 11 10 10 10 10 10 10 10 10 10 10 10 10 10 10 10 10 10 10 10 10 10 9 9 9 9 9 9 9 9 9 9 10 10 10
13 12 12 12 12 11 11 11 10 10 10 10 10 10 9 9 9 9 9 9 9 9 9 9 9 9 9 9 9 9 9 9 9 9 9 9 9 9 9 9 9 9 9
12 12 12 12 11 11 11 10 10 10 10 10 9 9 9 9 9 9 9 9 9 9 9 9 9 9 9 9 9 9 9 9 9 9 9 9 9 9 9 8 8 8 9
12 12 12 11 11 11 10 10 10 10 9 9 9 9 9 9 9 9 9 9 9 9 9 9 9 9 8 9 9 9 8 8 8 8 8 8 8 8 8 8 8 8 8
12 12 11 11 11 10 10 10 10 9 9 9 9 9 9 9 8 8 8 8 8 8 8 8 8 8 8 8 8 8 8 8 8 8 8 8 8 8 8 8 8 8 8
12 11 11 11 11 10 10 10 9 9 9 9 8 8 8 8 8 8 8 8 8 8 8 8 8 8 8 8 8 8 8 8 8 8 7 7 7 7 7 7 7 7 7
11 11 11 11 10 10 10 10 9 9 9 8 8 8 8 8 8 8 8 7 8 7 7 7 7 7 7 7 7 7 7 7 7 7 7 7 7 7 7 7 7 7 7
11 11 10 10 10 10 10 9 9 9 8 8 8 8 7 7 7 7 7 7 7 7 7 7 7 7 7 7 7 6 7 7 7 7 7 7 7 7 7 7 6 6 6
11 10 10 10 10 9 9 9 9 8 8 8 8 7 7 7 7 7 7 7 7 7 7 7 6 6 6 6 6 6 6 6 6 6 6 6 6 6 6 6 6 6 6
10 10 10 9 9 9 9 8 8 8 8 7 7 7 7 7 7 6 6 6 6 6 6 6 6 6 6 6 6 6 6 5 5 5 5 5 5 5 5 6 6 6 6
9 9 9 9 8 8 8 8 8 8 7 7 7 7 6 6 6 6 6 6 6 6 6 6 5 5 5 5 5 5 5 5 5 5 5 5 5 5 5 5 5 5 5
9 9 8 8 8 8 7 7 7 7 7 7 6 6 6 6 6 6 6 5 6 5 5 5 5 5 5 5 4 4 4 4 4 4 4 4 4 4 4 4 5 5 5
8 8 8 7 7 7 7 7 6 6 6 6 6 6 6 5 5 5 5 5 5 5 5 5 4 4 4 4 4 4 4 4 4 4 4 4 4 4 4 4 4 4 4
8 8 7 7 7 6 6 6 6 6 5 5 5 5 5 5 5 5 5 5 5 4 4 4 4 4 4 4 3 3 3 3 3 3 3 3 3 3 3 3 3 3 4
7 7 7 7 6 6 6 5 5 5 5 5 5 5 5 5 4 4 4 4 4 4 4 4 3 3 3 3 3 3 3 3 3 3 3 3 3 3 3 3 3 3 3
7 7 7 6 6 5 5 5 5 5 5 5 5 5 4 4 4 4 4 4 3 3 3 3 3 3 3 3 2 2 2 2 2 2 2 2 2 2 2 2 2 2 3
7 6 6 6 5 5 5 5 4 4 4 4 4 4 4 4 4 3 3 3 3 3 3 3 2 2 2 2 2 2 2 2 2 1 1 1 2 2 2 2 2 2 2
6 6 6 5 5 5 4 4 4 4 4 4 4 4 3 3 3 3 3 3 2 2 2 2 2 2 2 2 2 1 1 1 1 1 1 1 1 1 1 1 1 1 1
6 5 5 5 4 4 4 4 4 4 4 4 3 3 3 3 3 3 2 2 2 2 2 2 2 2 2 1 1 1 1 1 1 1 1 1 1 1 1 1 1 1 1
5 5 4 4 4 4 4 4 3 3 3 3 3 3 3 3 2 2 2 2 2 2 2 1 1 1 1 1 1 1 1 1 1 1 1 1 1 1 1 1 1 1 1
5 4 4 4 4 4 3 3 3 3 3 3 3 3 2 2 2 2 2 2 2 1 1 1 1 1 1 1 1 1 1 1 1 0 0 0 0 0 0 0 0 0 0
4 4 4 4 3 3 3 3 3 3 2 2 2 2 2 2 2 2 2 1 1 1 1 1 1 1 0 1 1 1 1 0 0 0 0 0 0 0 0 0 -0 -0 -0
4 3 3 3 3 3 3 2 2 2 2 2 2 2 1 1 1 1 1 1 1 1 1 0 0 0 0 0 0 1 0 0 0 0 0 0 0 0 -0 -0 -0 -0 -0
Wind_Speed
6 5 4 4 4 4 3 3 3 2 2 2 1 1 1 1 1 2 1 1 1 1 1 1 0 0 0 0 1 1 1 2 2 2 1 2 2 2 3 2 1 1 1
5 5 5 4 4 4 3 3 3 2 2 1 1 1 1 1 1 2 1 1 1 1 0 1 0 0 0 1 1 1 1 1 2 2 1 1 2 2 1 1 1 1 1
5 5 4 4 4 5 4 3 3 3 2 2 2 2 1 1 1 1 1 1 1 1 1 1 1 1 0 1 1 1 1 1 1 2 1 1 1 1 1 2 2 2 2
5 5 5 5 5 5 4 3 3 3 2 2 2 2 2 2 1 1 1 1 1 1 1 1 1 2 2 2 1 1 1 1 1 1 1 1 1 1 1 1 2 2 1
5 5 5 5 4 4 3 3 3 3 2 2 2 1 1 2 1 1 1 1 1 1 1 1 2 2 2 2 1 2 2 1 1 1 1 1 1 0 1 1 1 1 2
5 5 4 4 4 4 4 3 3 2 2 2 2 2 1 1 1 2 2 1 1 1 1 2 2 1 2 2 2 2 3 3 3 2 2 2 3 2 1 1 0 1 2
4 4 4 5 4 4 4 3 3 3 3 2 2 2 1 2 1 1 2 2 2 1 1 1 2 2 2 1 2 2 2 3 4 4 3 4 3 4 3 1 2 2 2
4 4 4 4 4 3 3 3 3 3 3 3 3 2 2 2 2 1 1 2 2 1 1 2 2 2 2 0 0 1 1 1 2 3 4 4 4 4 5 4 4 2 1
4 4 4 5 4 4 4 4 3 3 2 2 2 3 2 3 3 2 2 1 1 1 2 2 2 2 2 0 2 1 1 3 2 2 3 3 3 3 3 2 2 1 1
4 4 4 4 5 5 5 5 3 3 3 3 2 2 3 3 3 3 3 2 2 2 2 2 3 3 2 1 2 2 2 3 1 1 1 2 1 2 3 4 4 3 2
3 2 2 3 4 5 4 3 3 3 3 2 2 2 2 3 3 3 3 2 3 2 2 2 3 4 3 3 2 3 4 2 2 1 1 1 1 1 2 2 3 4 3
2 2 1 1 2 2 3 3 3 3 3 2 1 1 2 2 3 3 3 3 3 3 3 3 3 3 3 3 2 2 2 1 1 1 0 1 1 2 2 3 3 4 4
2 2 1 1 1 1 3 3 2 2 3 2 2 2 2 2 3 4 4 3 3 2 3 3 3 3 2 2 2 2 1 1 1 1 1 2 2 2 2 1 2 2 2
3 2 2 2 1 1 1 2 3 3 3 3 3 3 2 2 2 2 2 2 3 2 2 3 3 2 1 1 1 1 0 1 2 2 2 2 1 1 1 1 1 1 1
3 2 2 2 2 1 1 2 3 3 4 4 4 4 3 3 4 4 2 2 2 2 1 1 0 0 0 1 1 1 1 0 1 1 1 1 1 1 1 1 1 1 1
3 3 3 2 2 2 2 0 1 2 4 4 4 4 4 5 5 4 4 3 3 3 2 2 2 2 2 2 2 2 2 2 1 1 1 1 1 1 1 1 1 1 1
4 4 3 3 3 3 3 2 1 2 2 2 3 4 4 4 3 4 4 3 2 4 2 2 2 2 2 2 2 2 2 2 2 2 2 2 1 1 1 1 1 1 1
4 5 4 4 4 4 3 3 3 3 2 2 3 4 4 3 2 2 2 1 1 1 1 2 2 2 2 2 2 2 2 2 1 2 2 2 1 1 1 1 1 1 2
3 3 4 4 3 3 3 3 3 3 3 2 2 2 3 2 2 1 2 2 2 2 2 2 2 2 2 2 2 2 2 2 1 1 1 2 2 2 2 2 2 2 2
3 5 4 3 3 3 3 3 3 3 3 3 3 3 2 1 1 1 2 2 2 3 3 3 3 3 3 3 2 2 2 2 2 2 2 2 2 2 2 2 2 2 2
3 4 5 3 3 4 4 4 4 4 4 4 4 4 4 3 3 3 3 3 3 4 4 4 3 3 3 3 2 3 3 3 2 2 2 2 2 2 2 2 2 2 2
3 2 3 3 3 4 4 4 4 4 4 4 3 3 5 3 3 3 3 4 4 4 3 3 3 3 3 3 3 3 3 3 3 3 3 2 2 2 2 2 2 2 2
2 3 3 3 3 4 4 3 3 4 4 4 3 3 3 3 3 4 4 4 3 3 3 3 3 3 4 4 4 4 4 5 4 4 4 3 2 2 2 2 3 2 2
2 3 3 3 3 3 3 3 4 4 4 4 3 3 4 4 4 4 4 3 3 3 3 3 4 5 5 4 4 5 5 5 5 5 5 4 3 3 2 2 3 3 3
2 2 2 3 3 3 3 3 3 3 3 3 3 3 3 3 3 4 3 3 3 3 4 4 4 5 6 6 5 5 7 7 7 6 5 4 4 4 3 3 3 3 3
2 2 2 2 2 3 3 3 3 3 3 3 3 3 3 3 3 3 3 3 3 3 4 4 5 5 6 6 6 6 7 7 7 7 5 4 4 4 4 4 4 4 3
Wind_Direction
164 162 155 164 160 152 155 168 168 160 145 135 144 133 119 111 101 93 74 68 79 45 45 87 48 317 179 187 144 132 134 140 179 265 287 306 327 341 354 1 347 339 275
171 162 160 162 157 156 165 174 165 156 152 143 144 135 124 109 113 125 136 102 124 116 19 89 35 23 138 217 161 164 165 163 168 226 284 308 313 308 332 348 355 341 301
165 161 161 164 167 173 177 174 165 156 147 122 121 138 140 138 131 148 144 146 169 186 183 159 196 106 331 267 190 178 182 158 153 185 261 287 313 328 359 352 5 12 343
166 168 176 183 183 185 181 176 172 163 154 146 157 165 161 161 155 144 126 141 178 220 233 211 222 200 213 225 215 193 168 142 134 148 261 300 310 317 28 352 344 350 336
169 179 191 186 176 167 167 173 169 166 169 167 156 151 162 170 176 158 146 148 161 205 282 268 253 228 223 218 214 193 173 159 161 174 231 292 296 279 248 245 280 319 327
174 186 180 167 165 169 175 171 164 168 166 156 165 167 179 224 201 161 151 166 165 177 263 289 286 277 268 272 271 226 188 180 189 190 211 231 243 224 208 213 162 39 297
172 178 174 172 175 184 181 168 173 183 180 180 187 176 203 249 225 180 172 158 167 192 229 284 307 312 312 285 286 278 242 231 203 182 193 221 223 214 185 187 200 200 235
174 184 187 177 180 183 177 188 194 187 185 194 202 205 213 253 236 208 181 138 151 194 227 242 259 293 305 254 214 320 302 278 234 200 199 219 225 214 193 190 196 204 291
183 194 196 188 183 179 185 197 198 186 188 192 189 199 214 252 248 220 184 157 168 229 252 256 254 254 290 256 151 199 293 297 279 250 223 220 231 217 175 128 130 137 266
203 204 199 189 186 192 200 201 197 187 195 185 185 208 215 236 252 230 191 165 187 238 273 275 274 271 272 247 183 188 228 258 274 309 302 304 282 242 200 180 183 186 201
198 188 193 195 201 203 198 193 184 181 173 180 192 231 236 237 248 239 205 188 200 216 242 268 272 273 262 251 222 204 229 228 205 208 268 311 316 290 239 217 199 192 198
154 157 195 224 222 198 182 188 177 172 172 187 193 254 276 271 267 256 237 228 216 205 229 244 257 265 257 251 239 232 233 181 130 134 181 279 275 274 269 245 236 232 222
148 169 199 204 189 171 175 178 170 170 176 195 200 233 266 283 284 278 266 251 236 229 232 235 249 260 255 253 262 252 173 132 137 164 231 254 261 263 270 283 272 263 279
164 188 191 171 165 148 174 177 177 188 194 205 215 232 250 266 273 279 272 261 254 257 259 246 244 240 221 248 270 286 186 182 178 204 230 259 282 292 288 266 254 250 309
175 193 190 181 176 177 185 197 197 205 202 204 215 215 218 243 254 250 241 237 231 225 199 145 93 128 264 302 305 291 265 221 225 236 223 244 271 286 290 299 276 209 210
185 194 187 183 181 175 170 282 272 238 228 219 211 210 230 238 250 253 257 255 242 202 168 177 202 212 221 231 239 255 260 251 244 235 230 231 238 246 272 298 293 243 235
193 198 192 186 186 188 190 187 237 298 278 238 229 230 231 238 246 251 246 235 204 170 167 203 210 220 234 235 236 237 241 243 230 217 221 228 232 248 261 274 282 286 278
199 203 195 192 194 195 201 206 208 214 241 270 265 246 239 235 234 239 218 149 143 159 200 216 224 224 226 235 239 241 245 247 235 228 224 225 221 224 241 263 266 267 268
202 202 197 193 193 196 199 203 212 217 219 235 264 270 248 238 227 212 169 164 196 221 229 236 237 235 229 230 241 239 229 226 234 228 232 231 222 213 232 243 251 272 278
216 216 204 194 193 193 195 203 214 218 218 218 227 239 233 188 190 218 207 205 215 227 229 235 242 243 236 228 231 237 227 220 217 220 236 233 226 216 226 234 239 251 257
219 218 208 203 201 200 204 211 216 219 219 223 230 223 200 194 211 222 223 223 225 229 231 230 233 238 236 230 225 226 223 221 217 219 225 231 230 228 230 231 237 239 251
202 208 207 206 207 209 215 214 213 214 217 223 237 230 213 210 215 224 230 237 237 234 234 229 230 234 231 229 226 223 221 218 218 218 220 223 229 232 226 231 245 257 256
196 206 215 216 211 212 215 212 213 214 217 217 219 221 222 223 229 232 235 239 238 235 233 230 233 240 244 240 234 225 221 224 220 210 209 218 226 227 224 227 233 245 252
195 206 210 206 208 209 208 213 218 217 218 220 220 221 223 228 232 234 235 233 232 235 232 226 229 233 238 243 241 234 233 231 222 212 204 208 217 227 225 228 233 239 242
192 205 214 213 210 215 217 221 224 225 224 223 223 226 226 229 234 237 236 234 231 232 234 232 235 236 240 239 239 237 233 224 219 213 203 201 209 216 219 223 229 238 246
198 212 226 224 219 216 216 220 228 229 229 229 226 227 228 228 233 236 234 231 235 237 237 238 238 239 239 233 233 232 227 221 219 216 206 199 206 214 214 220 224 224 229
Height
1517 1518 1518 1518 1518 1519 1519 1519 1519 1519 1518 1518 1518 1518 1517 1517 1517 1517 1517 1516 1516 1516 1516 1516 1516 1517 1517 1517 1517 1517 1517 1517 1517 1516 1516 1516 1514 1513 1513 1512 1512 1512 1512
1515 1516 1516 1517 1517 1517 1517 1517 1517 1517 1517 1517 1516 1516 1516 1516 1516 1515 1515 1515 1514 1514 1514 1514 1514 1514 1514 1514 1515 1515 1515 1515 1515 1514 1514 1513 1512 1512 1511 1511 1511 1511 1511
1513 1514 1514 1515 1515 1515 1515 1516 1516 1515 1515 1515 1515 1514 1514 1514 1514 1514 1513 1513 1512 1512 1512 1512 1512 1512 1512 1512 1512 1512 1512 1513 1512 1512 1511 1511 1511 1510 1509 1509 1509 1509 1509
1511 1511 1512 1512 1513 1513 1513 1514 1514 1514 1513 1513 1513 1513 1513 1513 1512 1512 1512 1511 1511 1511 1510 1510 1510 1510 1510 1510 1510 1510 1510 1510 1510 1509 1509 1509 1509 1508 1508 1507 1507 1507 1507
1508 1509 1509 1510 1510 1511 1511 1511 1511 1511 1511 1511 1511 1511 1511 1510 1510 1510 1510 1509 1509 1508 1508 1508 1508 1508 1508 1508 1508 1507 1507 1507 1507 1507 1507 1506 1506 1506 1506 1506 1505 1505 1505
1505 1506 1507 1508 1508 1508 1509 1509 1509 1509 1509 1509 1509 1508 1508 1508 1508 1508 1507 1507 1507 1506 1506 1505 1505 1505 1505 1505 1505 1505 1505 1504 1504 1504 1504 1504 1504 1504 1504 1504 1503 1503 1503
1502 1503 1504 1505 1505 1505 1506 1506 1506 1507 1507 1506 1506 1505 1505 1505 1505 1505 1505 1504 1504 1504 1503 1503 1502 1502 1502 1502 1502 1502 1502 1501 1502 1501 1501 1501 1501 1501 1501 1501 1501 1501 1501
1499 1500 1501 1502 1502 1503 1503 1503 1503 1503 1503 1503 1503 1502 1502 1502 1502 1502 1502 1501 1501 1501 1500 1500 1499 1499 1499 1499 1499 1498 1498 1498 1498 1498 1498 1499 1499 1499 1499 1499 1499 1499 1499
1497 1497 1498 1499 1499 1499 1500 1500 1500 1500 1500 1500 1499 1499 1499 1499 1499 1499 1499 1498 1498 1497 1497 1497 1496 1496 1496 1496 1495 1495 1495 1495 1495 1495 1495 1496 1496 1496 1497 1497 1496 1496 1496
1494 1494 1495 1495 1496 1496 1496 1496 1497 1497 1497 1497 1496 1496 1496 1496 1496 1495 1495 1495 1494 1494 1494 1493 1493 1493 1492 1492 1492 1492 1492 1492 1492 1492 1492 1492 1493 1493 1494 1494 1494 1494 1493
1491 1491 1492 1492 1492 1493 1493 1493 1493 1493 1493 1493 1492 1492 1492 1492 1492 1492 1492 1491 1491 1490 1490 1490 1489 1489 1489 1488 1488 1488 1488 1488 1488 1489 1489 1489 1489 1489 1490 1490 1491 1491 1491
1488 1488 1488 1488 1489 1489 1489 1489 1489 1489 1489 1489 1488 1488 1488 1488 1488 1488 1488 1487 1487 1487 1486 1486 1486 1485 1485 1485 1485 1485 1485 1485 1485 1485 1485 1485 1485 1486 1486 1486 1487 1487 1488
1484 1485 1485 1485 1485 1485 1485 1484 1485 1485 1485 1485 1484 1484 1484 1484 1484 1484 1484 1483 1483 1483 1482 1482 1482 1482 1481 1481 1481 1481 1482 1481 1481 1482 1482 1482 1482 1482 1483 1483 1483 1483 1484
1481 1481 1481 1481 1481 1481 1481 1481 1481 1481 1480 1480 1480 1480 1480 1479 1479 1480 1479 1479 1479 1479 1478 1478 1479 1478 1478 1478 1478 1478 1478 1478 1478 1478 1479 1479 1479 1479 1479 1479 1479 1480 1480
1477 1477 1477 1477 1477 1477 1477 1477 1477 1477 1477 1477 1476 1476 1476 1475 1475 1475 1475 1474 1474 1474 1474 1474 1474 1474 1474 1474 1475 1475 1475 1475 1475 1475 1475 1476 1476 1476 1476 1476 1476 1476 1476
1473 1473 1473 1473 1473 1473 1473 1473 1473 1473 1473 1473 1473 1473 1472 1472 1472 1471 1471 1471 1470 1470 1470 1469 1470 1470 1470 1471 1471 1471 1471 1471 1471 1472 1472 1473 1473 1473 1473 1473 1474 1474 1474
1470 1470 1470 1469 1469 1469 1469 1469 1469 1469 1469 1469 1469 1469 1469 1468 1468 1467 1467 1467 1466 1466 1466 1465 1466 1466 1467 1467 1467 1467 1467 1468 1468 1469 1469 1470 1470 1470 1470 1471 1471 1471 1471
1466 1466 1466 1466 1465 1465 1465 1465 1465 1465 1465 1464 1465 1465 1465 1465 1464 1464 1463 1463 1462 1462 1462 1462 1462 1462 1463 1463 1463 1463 1464 1464 1465 1465 1466 1466 1467 1467 1467 1468 1468 1468 1467
1462 1462 1462 1462 1462 1462 1462 1461 1461 1461 1461 1461 1461 1461 1461 1461 1461 1460 1460 1459 1458 1458 1458 1458 1458 1459 1459 1459 1460 1460 1460 1460 1461 1462 1462 1463 1464 1464 1464 1465 1465 1465 1465
1458 1458 1458 1458 1458 1458 1458 1458 1458 1458 1457 1457 1457 1457 1457 1457 1456 1456 1456 1455 1455 1454 1454 1454 1455 1455 1455 1456 1456 1456 1456 1457 1458 1458 1459 1460 1460 1461 1461 1462 1462 1462 1462
1454 1454 1454 1454 1454 1454 1454 1454 1454 1454 1454 1454 1454 1454 1454 1453 1453 1452 1451 1451 1451 1451 1451 1450 1451 1451 1452 1452 1452 1453 1453 1453 1454 1455 1456 1457 1457 1458 1458 1458 1459 1459 1459
1450 1450 1450 1449 1450 1450 1450 1450 1450 1450 1450 1450 1450 1450 1450 1450 1449 1449 1448 1448 1447 1447 1447 1447 1447 1448 1448 1448 1448 1449 1449 1449 1450 1451 1452 1453 1454 1454 1455 1455 1455 1456 1456
1446 1446 1446 1446 1446 1446 1446 1446 1446 1446 1446 1446 1446 1446 1446 1445 1445 1445 1444 1444 1444 1443 1443 1443 1443 1443 1444 1444 1444 1445 1445 1446 1447 1448 1449 1450 1450 1451 1452 1452 1452 1453 1453
1442 1442 1442 1442 1442 1442 1442 1442 1442 1442 1442 1442 1442 1442 1442 1442 1441 1441 1441 1440 1440 1440 1440 1439 1439 1439 1439 1440 1440 1441 1441 1442 1443 1444 1445 1446 1447 1448 1448 1449 1449 1449 1450
1439 1439 1438 1438 1438 1438 1438 1438 1438 1439 1439 1438 1438 1438 1438 1438 1437 1437 1437 1436 1436 1436 1435 1435 1435 1435 1435 1435 1436 1436 1437 1439 1440 1441 1442 1443 1444 1444 1445 1445 1446 1446 1447
1436 1436 1435 1435 1435 1435 1435 1435 1435 1435 1435 1435 1435 1434 1434 1434 1433 1433 1432 1432 1432 1432 1431 1431 1430 1430 1430 1431 1431 1432 1433 1435 1436 1437 1438 1439 1440 1441 1441 1442 1442 1443 1443